EA4LT-13 Weather Reports


time (UTC)temp
F
wind
direction
speed
knots
gust
knots
rain 1hr
in
rain 24hr
in
rain mn
in
humidity
%
barometer
mb
20260507113200 68 225 5.2 10.4 0.00 0.00 0.00 48 1008.4
20260507111701 68 180 0.9 7.8 0.00 0.00 0.00 50 1008.4
20260507110201 65 225 2.6 9.6 0.00 0.00 0.00 55 1008.5
20260507104701 65 135 5.2 9.6 0.00 0.00 0.00 55 1008.6
20260507103200 67 180 2.6 9.6 0.00 0.00 0.00 51 1008.4
20260507101701 66 158 2.6 7.8 0.00 0.00 0.00 52 1008.3
20260507100200 66 135 1.7 7.0 0.00 0.00 0.00 52 1008.3
20260507094701 66 158 1.7 3.5 0.00 0.00 0.00 48 1008.1
20260507093200 66 112 0.0 3.5 0.00 0.00 0.00 49 1008.1
20260507091701 64 112 1.7 3.5 0.00 0.00 0.00 53 1008.2
20260507090200 64 202 0.0 2.6 0.00 0.00 0.00 52 1008.3
20260507084700 64 135 0.9 2.6 0.00 0.00 0.00 54 1008.2
20260507083200 63 90 0.0 1.7 0.00 0.00 0.00 57 1007.8
20260507081700 62 22 0.0 5.2 0.00 0.00 0.00 58 1007.9
20260507080200 59 292 0.9 5.2 0.00 0.00 0.00 63 1007.8
20260507074700 58 292 2.6 5.2 0.00 0.00 0.00 65 1007.5
20260507073201 57 315 1.7 5.2 0.00 0.00 0.00 67 1007.4
20260507071700 55 315 2.6 3.5 0.00 0.00 0.00 70 1007.5
20260507070201 52 315 2.6 3.5 0.00 0.00 0.00 79 1007.5
20260507064659 51 270 0.9 2.6 0.00 0.00 0.00 79 1007.4
20260507063200 50 338 1.7 2.6 0.00 0.00 0.00 83 1007.2
20260507061700 49 292 0.9 2.6 0.00 0.00 0.00 86 1007.2
20260507060159 49 315 0.0 2.6 0.00 0.00 0.00 86 1007.4
20260507054659 49 292 0.0 1.7 0.00 0.00 0.00 85 1007.1
20260507053159 52 315 0.0 5.2 0.00 0.00 0.00 75 1007.1
20260507051659 53 315 4.3 7.0 0.00 0.00 0.00 71 1006.8
20260507050159 53 292 4.3 7.0 0.00 0.00 0.00 71 1007.0
20260507044700 52 315 4.3 5.2 0.00 0.00 0.00 74 1007.0
20260507043159 50 292 1.7 3.5 0.00 0.00 0.00 84 1007.0
20260507041658 49 315 2.6 5.2 0.00 0.00 0.00 85 1006.9
20260507040159 50 292 2.6 3.5 0.00 0.00 0.00 82 1007.1
20260507034659 50 292 2.6 5.2 0.00 0.00 0.00 81 1007.3
20260507033158 53 315 2.6 5.2 0.00 0.00 0.00 74 1007.3
20260507031659 53 315 3.5 7.0 0.00 0.00 0.00 74 1007.3
20260507030158 54 292 2.6 5.2 0.00 0.00 0.00 73 1007.4
20260507024658 54 315 2.6 5.2 0.00 0.00 0.00 71 1007.1
20260507023200 54 292 3.5 7.0 0.00 0.00 0.00 71 1007.2
20260507021658 54 315 4.3 7.0 0.00 0.00 0.00 72 1007.2
20260507020158 54 292 3.5 5.2 0.00 0.00 0.00 72 1007.2
20260507014658 54 292 4.3 7.8 0.00 0.00 0.00 72 1007.4
20260507013158 53 315 2.6 7.0 0.00 0.00 0.00 75 1007.3
20260507011658 54 315 5.2 8.7 0.00 0.00 0.00 72 1007.5
20260507010159 54 292 4.3 7.0 0.00 0.00 0.00 72 1007.6
20260507004659 54 315 4.3 7.8 0.00 0.00 0.00 72 1007.8
20260507003158 55 315 5.2 8.7 0.00 0.00 0.00 71 1007.8
20260507001657 54 315 4.3 7.8 0.00 0.00 0.00 72 1007.9
20260507000158 54 315 4.3 7.8 0.00 0.00 0.00 73 1008.1
20260506234657 55 292 5.2 8.7 0.00 0.00 0.00 72 1008.0
20260506233158 55 292 5.2 8.7 0.00 0.00 0.00 73 1007.8
20260506231658 55 315 4.3 8.7 0.00 0.00 0.00 72 1008.0
20260506230157 55 292 5.2 11.3 0.00 0.00 0.00 72 1007.9
20260506224657 55 292 5.2 8.7 0.00 0.00 0.00 72 1008.1
20260506223158 55 292 5.2 9.6 0.00 0.00 0.00 72 1008.2
20260506221657 55 315 7.0 10.4 0.00 0.00 0.00 71 1008.2
20260506220157 56 292 7.8 13.0 0.00 0.00 0.00 70 1008.2
20260506214657 56 292 7.0 13.0 0.00 0.00 0.00 69 1008.0
20260506213157 57 338 5.2 11.3 0.00 0.00 0.00 68 1008.1
20260506211657 57 292 5.2 13.0 0.00 0.00 0.00 67 1008.1
20260506210157 58 315 6.1 11.3 0.00 0.00 0.00 65 1008.1
20260506204658 58 315 7.0 9.6 0.00 0.00 0.00 63 1007.9
20260506203157 59 315 3.5 10.4 0.00 0.00 0.00 60 1008.1
20260506201656 61 315 7.0 10.4 0.00 0.00 0.00 53 1007.6
20260506200157 63 292 4.3 5.2 0.00 0.00 0.00 45 1007.3
20260506194656 64 292 0.9 1.7 0.00 0.00 0.00 43 1007.4
20260506193157 64 292 1.7 3.5 0.00 0.00 0.00 42 1007.3
20260506191656 65 270 1.7 3.5 0.00 0.00 0.00 41 1007.3
20260506190156 66 315 0.9 2.6 0.00 0.00 0.00 40 1007.4
20260506184656 65 315 1.7 2.6 0.00 0.00 0.00 40 1007.4
20260506183157 66 270 1.7 3.5 0.00 0.00 0.00 41 1007.3
20260506181657 66 270 1.7 2.6 0.00 0.00 0.00 40 1007.5
20260506180156 66 270 0.9 3.5 0.00 0.00 0.00 39 1007.6
20260506174655 67 315 0.9 2.6 0.00 0.00 0.00 37 1007.7
20260506173156 67 292 1.7 3.5 0.00 0.00 0.00 38 1007.6
20260506171656 67 315 2.6 7.8 0.00 0.00 0.00 38 1008.0
20260506170156 69 360 1.7 5.2 0.00 0.00 0.00 37 1007.8
20260506164655 69 135 1.7 7.0 0.00 0.00 0.00 37 1007.8
20260506163156 69 158 1.7 3.5 0.00 0.00 0.00 36 1007.7
20260506161655 71 180 2.6 3.5 0.00 0.00 0.00 35 1007.9
20260506160155 67 360 1.7 7.8 0.00 0.00 0.00 38 1008.1
20260506154655 68 338 2.6 7.8 0.00 0.00 0.00 38 1008.1
20260506153156 69 68 0.9 7.0 0.00 0.00 0.00 36 1008.3
20260506151656 69 158 1.7 5.2 0.00 0.00 0.00 35 1008.3
20260506150156 70 360 2.6 7.8 0.00 0.00 0.00 36 1008.5
20260506144655 70 315 2.6 8.7 0.00 0.00 0.00 35 1009.0
20260506143156 68 225 0.9 5.2 0.00 0.00 0.00 38 1009.2
20260506141656 67 270 2.6 3.5 0.00 0.00 0.00 39 1009.4
20260506140156 69 292 2.6 7.0 0.00 0.00 0.00 39 1009.5
20260506134654 67 292 0.9 7.8 0.00 0.00 0.00 41 1009.6
20260506133155 68 270 0.9 7.0 0.00 0.00 0.00 41 1009.7
20260506131655 67 248 0.9 5.2 0.00 0.00 0.00 41 1009.6
20260506130155 66 292 1.7 5.2 0.00 0.00 0.00 42 1010.2
20260506124654 68 315 2.6 7.0 0.00 0.00 0.00 41 1010.3
20260506123155 66 68 0.0 7.0 0.00 0.00 0.00 44 1010.4
20260506121654 65 315 1.7 7.0 0.00 0.00 0.00 45 1010.6
20260506120154 66 90 0.0 5.2 0.00 0.00 0.00 43 1010.8
20260506114656 65 112 0.0 5.2 0.00 0.00 0.00 46 1010.8